Location: Nianha
(10.8000°N, 4.6333°W)
Time: 17:07:00
(UTC+00:00)

Cosmos 2058 - Pass Details

Date: 14 November 2019
Orbit: 563 x 583 km, 82.5° (Epoch: 28 January)

Event Time Altitude Azimuth Distance (km) Brightness Sun altitude
Rises 05:16:32 0° 199° (SSW) 2,787 6.4 -14.2°
Reaches altitude 10° 05:18:50 10° 207° (SSW) 1,891 5.4 -13.7°
Maximum altitude 05:22:42 37° 275° (W) 916 3.4 -12.8°
Drops below altitude 10° 05:26:34 10° 343° (NNW) 1,894 5.2 -11.9°
Sets 05:28:53 0° 352° (N) 2,794 6.2 -11.3°
